Hourly Weather Holuby

Today, 12 April, Monday

Time Temperature Precipitation Wind Pressure Humidity
00:00 +7°C° 0 mm 3 mps 753 mmHg 65%
01:00 +5°C° 0 mm 3 mps 753 mmHg 66%
02:00 +5°C° 0 mm 3 mps 753 mmHg 67%
03:00 +5°C° 0 mm 3 mps 752 mmHg 67%
04:00 +5°C° 0 mm 4 mps 752 mmHg 67%
05:00 +5°C° 0 mm 4 mps 751 mmHg 67%
06:00 +6°C° 0 mm 4 mps 751 mmHg 69%
07:00 +6°C° 0 mm 4 mps 751 mmHg 72%
08:00 +6°C° 0 mm 4 mps 751 mmHg 74%
09:00 +8°C° 0.1 mm 4 mps 751 mmHg 73%
10:00 +10°C° 0.1 mm 4 mps 750 mmHg 72%
11:00 +12°C° 0.1 mm 4 mps 750 mmHg 70%
12:00 +14°C° 0 mm 4 mps 750 mmHg 66%
13:00 +15°C° 0 mm 4 mps 749 mmHg 61%
14:00 +18°C° 0 mm 4 mps 749 mmHg 56%
15:00 +18°C° 0 mm 3 mps 749 mmHg 58%
16:00 +18°C° 0 mm 2 mps 748 mmHg 59%
17:00 +18°C° 0 mm 2 mps 748 mmHg 60%
18:00 +18°C° 0 mm 1 mps 748 mmHg 62%
19:00 +16°C° 0 mm 1 mps 748 mmHg 64%
20:00 +15°C° 0 mm 1 mps 748 mmHg 66%
21:00 +14°C° 0 mm 1 mps 748 mmHg 70%
22:00 +14°C° 0 mm 2 mps 748 mmHg 73%
23:00 +13°C° 0 mm 2 mps 748 mmHg 76%

Tomorrow, 13 April, Tuesday

Time Temperature Precipitation Wind Pressure Humidity
00:00 +12°C° 0 mm 2 mps 748 mmHg 79%
01:00 +12°C° 0 mm 2 mps 748 mmHg 82%
02:00 +10°C° 0 mm 3 mps 748 mmHg 85%
03:00 +10°C° 0 mm 3 mps 749 mmHg 86%
04:00 +10°C° 0 mm 2 mps 749 mmHg 87%
05:00 +10°C° 0 mm 2 mps 749 mmHg 87%
06:00 +11°C° 0 mm 3 mps 749 mmHg 87%
07:00 +11°C° 0 mm 3 mps 749 mmHg 87%
08:00 +11°C° 0 mm 3 mps 749 mmHg 86%
09:00 +12°C° 0 mm 3 mps 749 mmHg 84%
10:00 +12°C° 0 mm 4 mps 749 mmHg 82%
11:00 +13°C° 0 mm 4 mps 749 mmHg 80%
12:00 +13°C° 0 mm 4 mps 749 mmHg 79%
13:00 +13°C° 0 mm 4 mps 749 mmHg 78%
14:00 +13°C° 0 mm 4 mps 749 mmHg 76%
15:00 +13°C° 0 mm 3 mps 749 mmHg 78%
16:00 +13°C° 0 mm 2 mps 749 mmHg 79%
17:00 +13°C° 0 mm 2 mps 748 mmHg 80%
18:00 +13°C° 0 mm 2 mps 748 mmHg 82%
19:00 +12°C° 0 mm 2 mps 748 mmHg 83%
20:00 +12°C° 0 mm 2 mps 749 mmHg 85%
21:00 +12°C° 0 mm 2 mps 748 mmHg 86%
22:00 +10°C° 0 mm 2 mps 748 mmHg 87%
23:00 +10°C° 0 mm 2 mps 748 mmHg 88%

Day after tomorrow, 14 April, Wednesday

Time Temperature Precipitation Wind Pressure Humidity
00:00 +10°C° 0 mm 2 mps 748 mmHg 88%
01:00 +10°C° 0 mm 2 mps 748 mmHg 88%
02:00 +10°C° 0 mm 2 mps 748 mmHg 87%
03:00 +10°C° 0 mm 2 mps 747 mmHg 88%
04:00 +10°C° 0 mm 2 mps 747 mmHg 88%
05:00 +9°C° 0 mm 2 mps 747 mmHg 89%
06:00 +10°C° 0 mm 2 mps 747 mmHg 88%
07:00 +10°C° 0 mm 2 mps 747 mmHg 87%
08:00 +10°C° 0 mm 3 mps 747 mmHg 86%
09:00 +11°C° 0 mm 3 mps 747 mmHg 83%
10:00 +11°C° 0 mm 3 mps 747 mmHg 80%
11:00 +12°C° 0 mm 3 mps 747 mmHg 77%
12:00 +13°C° 0.1 mm 3 mps 746 mmHg 70%
13:00 +14°C° 0.1 mm 3 mps 746 mmHg 63%
14:00 +16°C° 0.1 mm 2 mps 746 mmHg 56%
15:00 +16°C° 0.1 mm 2 mps 746 mmHg 59%
16:00 +15°C° 0.1 mm 2 mps 745 mmHg 62%
17:00 +15°C° 0.1 mm 2 mps 745 mmHg 65%
18:00 +14°C° 0.1 mm 2 mps 745 mmHg 70%
19:00 +13°C° 0.1 mm 2 mps 745 mmHg 74%
20:00 +11°C° 0.1 mm 3 mps 745 mmHg 78%
21:00 +12°C° 0 mm 2 mps 745 mmHg 79%
22:00 +12°C° 0 mm 2 mps 745 mmHg 80%
23:00 +12°C° 0 mm 2 mps 745 mmHg 81%

15 April, Thursday

Time Temperature Precipitation Wind Pressure Humidity
00:00 +10°C° 0 mm 2 mps 745 mmHg 80%
01:00 +10°C° 0 mm 2 mps 745 mmHg 80%
02:00 +11°C° 0 mm 1 mps 745 mmHg 79%
03:00 +11°C° 0 mm 1 mps 745 mmHg 79%
04:00 +11°C° 0 mm 1 mps 744 mmHg 78%
05:00 +11°C° 0 mm 1 mps 744 mmHg 78%
06:00 +11°C° 0 mm 1 mps 744 mmHg 76%
07:00 +12°C° 0 mm 2 mps 744 mmHg 74%
08:00 +13°C° 0 mm 2 mps 744 mmHg 71%
09:00 +14°C° 0.1 mm 2 mps 744 mmHg 65%
10:00 +15°C° 0.1 mm 2 mps 744 mmHg 59%
11:00 +16°C° 0.1 mm 2 mps 744 mmHg 53%
12:00 +17°C° 0 mm 2 mps 744 mmHg 50%
13:00 +17°C° 0 mm 2 mps 744 mmHg 48%
14:00 +18°C° 0 mm 2 mps 743 mmHg 45%
15:00 +17°C° 0 mm 2 mps 743 mmHg 48%
16:00 +18°C° 0 mm 1 mps 743 mmHg 51%
17:00 +16°C° 0 mm 1 mps 743 mmHg 54%
18:00 +15°C° 0.1 mm 1 mps 743 mmHg 60%
19:00 +14°C° 0.1 mm 1 mps 743 mmHg 66%
20:00 +13°C° 0.1 mm 1 mps 743 mmHg 72%
21:00 +12°C° 0.1 mm 1 mps 743 mmHg 75%
22:00 +12°C° 0.1 mm 1 mps 742 mmHg 77%
23:00 +11°C° 0.1 mm 0 mps 742 mmHg 80%

16 April, Friday

Time Temperature Precipitation Wind Pressure Humidity
00:00 +11°C° 0.2 mm 1 mps 742 mmHg 82%
01:00 +11°C° 0.2 mm 1 mps 742 mmHg 85%
02:00 +9°C° 0.2 mm 2 mps 742 mmHg 88%
03:00 +9°C° 0.1 mm 2 mps 742 mmHg 89%
04:00 +9°C° 0.1 mm 2 mps 742 mmHg 89%
05:00 +9°C° 0.1 mm 2 mps 742 mmHg 90%
06:00 +9°C° 0 mm 2 mps 742 mmHg 87%
07:00 +10°C° 0 mm 3 mps 742 mmHg 84%
08:00 +10°C° 0 mm 3 mps 742 mmHg 81%
09:00 +11°C° 0.1 mm 4 mps 742 mmHg 76%
10:00 +12°C° 0.1 mm 4 mps 742 mmHg 71%
11:00 +12°C° 0.1 mm 5 mps 742 mmHg 67%
12:00 +12°C° 0.1 mm 5 mps 743 mmHg 65%
13:00 +12°C° 0.1 mm 4 mps 743 mmHg 62%
14:00 +13°C° 0.1 mm 4 mps 743 mmHg 60%
15:00 +12°C° 0 mm 4 mps 743 mmHg 62%
16:00 +12°C° 0 mm 4 mps 743 mmHg 65%
17:00 +11°C° 0 mm 4 mps 743 mmHg 67%
18:00 +10°C° 0 mm 3 mps 743 mmHg 72%
19:00 +9°C° 0 mm 3 mps 743 mmHg 77%
20:00 +9°C° 0 mm 2 mps 744 mmHg 82%
21:00 +8°C° 0 mm 2 mps 744 mmHg 83%
22:00 +9°C° 0 mm 1 mps 744 mmHg 84%
23:00 +9°C° 0 mm 1 mps 744 mmHg 86%

17 April, Saturday

Time Temperature Precipitation Wind Pressure Humidity
00:00 +9°C° 0.1 mm 1 mps 745 mmHg 86%
01:00 +9°C° 0.1 mm 1 mps 745 mmHg 87%
02:00 +9°C° 0.1 mm 1 mps 745 mmHg 88%
03:00 +8°C° 0 mm 1 mps 745 mmHg 89%
04:00 +8°C° 0 mm 1 mps 746 mmHg 89%
05:00 +7°C° 0 mm 2 mps 746 mmHg 90%
06:00 +7°C° 0 mm 2 mps 746 mmHg 86%
07:00 +7°C° 0 mm 2 mps 747 mmHg 82%
08:00 +8°C° 0 mm 2 mps 747 mmHg 78%
09:00 +9°C° 0 mm 1 mps 748 mmHg 73%
10:00 +10°C° 0 mm 1 mps 748 mmHg 69%
11:00 +11°C° 0 mm 1 mps 748 mmHg 65%
12:00 +12°C° 0 mm 2 mps 749 mmHg 62%
13:00 +13°C° 0 mm 2 mps 749 mmHg 58%
14:00 +14°C° 0 mm 2 mps 749 mmHg 54%
15:00 +14°C° 0 mm 2 mps 749 mmHg 57%
16:00 +12°C° 0 mm 3 mps 749 mmHg 60%
17:00 +12°C° 0 mm 3 mps 750 mmHg 62%
18:00 +11°C° 0.1 mm 3 mps 750 mmHg 68%
19:00 +10°C° 0.1 mm 4 mps 750 mmHg 74%
20:00 +10°C° 0.1 mm 4 mps 751 mmHg 79%
21:00 +8°C° 0.1 mm 4 mps 751 mmHg 81%
22:00 +8°C° 0.1 mm 4 mps 751 mmHg 82%
23:00 +8°C° 0.1 mm 4 mps 752 mmHg 84%
Show more